GFSSW_sfc_30mbdewp_276.txt.gz
Dewpoint
56 56 56 56 56 56 56 57 57 57 57 58 58 58 59 60 55 38 19 30 43 71 70 60 56 51 53 51 52 54 47 44 47 47 50 54 54 57 57 54 56 59 57 58 65
55 56 56 56 57 57 57 57 57 57 57 57 57 58 59 59 41 24 33 49 57 71 54 49 39 49 46 47 49 49 46 47 50 50 50 53 53 55 54 54 56 58 58 62 64
56 56 56 57 57 57 57 57 57 57 57 57 57 58 59 58 32 22 52 65 66 67 41 35 36 42 40 43 48 49 45 48 50 53 52 52 54 56 54 53 53 57 60 62 62
56 56 56 56 56 57 58 57 57 57 56 56 57 58 59 45 14 27 46 66 65 58 37 32 39 41 44 44 49 46 48 48 50 51 53 53 54 54 54 54 55 58 59 59 60
56 56 56 56 56 56 56 57 57 57 56 56 57 58 48 25 18 25 32 54 50 48 33 36 40 38 40 45 48 47 48 49 50 49 51 53 53 53 54 56 57 57 57 57 57
56 55 56 56 56 56 56 56 55 56 56 56 57 58 38 16 22 23 27 24 43 41 38 41 36 35 42 45 45 49 49 48 49 48 51 51 54 54 56 57 57 57 57 56 54
55 56 56 57 56 56 55 55 55 55 55 56 57 54 27 14 21 22 24 23 21 36 34 30 32 33 41 44 49 48 46 47 47 48 47 52 52 51 56 56 55 57 57 55 55
56 57 57 56 56 55 55 54 54 55 57 57 58 46 17 20 23 23 21 23 22 25 23 24 30 42 44 48 46 43 43 40 45 46 47 51 42 53 57 55 53 55 56 56 55
57 57 57 56 55 55 54 53 54 57 57 58 49 32 12 24 21 22 24 22 25 22 23 30 35 40 45 41 38 38 35 38 42 47 45 47 43 51 56 55 53 52 55 56 56
57 57 56 55 55 54 53 52 54 56 54 49 42 29 19 14 19 22 24 24 24 22 27 31 34 35 37 35 31 33 34 37 39 44 46 44 43 49 54 54 53 53 51 54 55
57 57 56 55 54 54 50 39 38 37 40 26 13 14 12 21 26 20 22 23 22 23 28 35 34 29 28 33 34 35 36 36 40 44 44 43 43 44 52 53 52 53 52 52 52
57 57 55 55 54 53 48 34 39 38 32 32 32 28 27 28 21 21 21 22 22 21 25 32 34 30 31 33 33 34 35 36 40 44 44 43 44 45 48 52 52 53 53 52 52
56 56 55 54 53 49 41 38 41 39 33 29 31 29 27 27 17 15 17 21 19 18 19 29 32 33 32 31 32 32 34 35 37 42 45 44 41 44 47 49 52 53 53 53 53
56 56 55 53 48 44 39 41 40 42 25 18 20 25 27 24 17 18 17 16 17 16 19 23 30 35 31 28 32 30 36 37 38 39 35 42 31 40 44 48 50 51 52 52 53
55 56 55 52 48 39 37 39 42 37 8 16 22 29 26 17 15 17 18 14 15 14 16 20 27 33 31 30 32 32 39 38 38 37 35 36 34 36 43 43 46 48 49 50 52
55 55 53 51 48 44 43 42 39 23 6 18 23 24 20 18 12 16 15 14 11 9 13 13 25 30 30 32 32 37 38 37 37 34 30 33 33 28 32 37 40 43 46 48 50
55 54 52 51 40 43 43 37 24 13 17 21 21 22 18 12 11 10 13 11 7 10 12 8 19 26 30 30 33 33 31 30 31 30 28 33 33 29 33 38 41 43 47 49 50
54 52 52 49 47 46 40 31 19 14 22 25 23 23 20 13 9 9 10 9 8 8 8 11 10 21 24 26 27 28 29 26 30 28 28 35 29 29 35 42 45 46 50 52 52
52 47 45 47 48 46 37 24 17 16 27 23 23 18 19 15 9 9 8 7 8 9 10 12 13 19 21 21 24 27 29 28 29 28 28 27 29 30 33 38 41 45 50 52 54
50 42 46 47 48 41 32 23 25 25 28 24 23 21 18 12 6 7 6 6 7 9 10 12 13 18 22 26 29 29 30 28 29 25 25 24 27 27 30 32 41 43 47 54 55
46 42 44 46 43 34 24 22 26 28 29 23 23 20 21 21 14 10 5 6 7 9 9 7 7 10 16 22 25 29 28 26 24 23 20 19 21 28 28 34 40 42 50 54 54
45 38 44 45 30 28 23 25 31 23 26 24 25 22 23 25 22 15 10 7 6 7 7 8 5 7 12 12 22 25 26 26 27 24 24 22 19 21 29 39 43 44 51 54 56
43 43 43 43 24 25 28 25 26 24 24 24 23 25 28 28 26 20 16 14 9 6 8 7 3 4 7 11 16 20 25 27 27 24 20 19 19 30 36 41 48 47 53 55 57
43 42 40 38 37 30 28 27 29 34 32 31 29 31 30 30 28 27 22 23 17 13 15 12 3 2 4 8 11 16 20 23 26 24 20 22 20 24 27 36 45 49 54 57 60
42 48 52 32 31 36 36 36 32 31 36 38 33 32 33 33 25 25 23 24 27 27 14 10 6 7 6 5 10 14 17 21 22 22 20 21 18 22 24 30 37 46 52 57 60
45 45 47 46 45 41 40 37 36 34 36 32 38 38 39 37 30 25 34 32 34 23 22 11 8 8 8 7 8 9 15 19 23 23 21 21 20 21 24 43 43 45 50 55 59
48 48 45 42 44 43 39 39 39 41 38 40 42 41 39 38 39 42 41 39 38 37 24 17 11 17 9 10 7 6 9 12 16 17 17 15 17 21 26 31 42 46 49 53 58

GFSSW_sfc_30mbdewp_279.txt.gz
Dewpoint
57 57 57 58 58 58 58 58 58 58 58 58 58 58 59 59 55 38 31 33 49 69 70 58 55 51 50 49 50 51 53 47 43 51 47 46 46 53 52 50 54 56 52 58 60
56 57 57 57 57 58 58 58 59 58 58 58 58 58 59 59 41 26 44 46 49 69 55 50 43 41 44 44 47 46 45 44 46 45 48 44 49 50 52 52 53 55 56 59 59
56 57 57 56 57 57 57 58 58 58 58 58 58 58 59 57 33 25 55 56 64 64 53 40 36 36 40 41 45 45 43 45 46 48 47 45 48 48 51 50 52 55 57 59 57
56 56 56 56 56 57 57 57 57 57 57 57 58 58 59 42 20 27 52 62 68 51 50 41 34 38 40 42 44 45 46 46 46 47 48 47 48 49 49 49 48 56 58 58 56
56 56 57 57 57 57 57 57 57 56 56 57 57 58 44 31 16 27 36 56 46 48 46 36 37 37 37 40 44 44 46 47 48 46 48 48 48 49 47 48 52 56 57 56 55
56 56 57 58 57 57 57 56 56 56 56 56 57 58 43 21 20 23 28 31 40 44 39 38 38 35 36 39 41 43 44 45 46 47 48 47 48 51 51 50 52 54 54 53 53
56 58 58 57 57 56 56 56 55 55 55 57 58 51 29 18 18 23 28 29 38 42 38 38 33 33 35 41 41 43 43 44 45 46 45 48 48 48 50 50 51 52 52 52 52
56 58 58 56 56 56 56 55 54 55 56 59 58 46 26 16 18 19 25 28 30 30 33 31 30 33 39 41 42 40 42 39 42 43 44 47 47 49 51 50 49 52 52 52 51
56 57 57 56 56 55 55 55 54 56 58 57 49 37 18 21 12 18 25 27 32 33 31 30 34 35 38 38 43 39 36 37 39 43 43 45 42 49 51 49 48 50 51 52 52
56 57 56 56 55 55 54 53 55 56 54 46 39 30 19 8 11 20 26 27 27 31 31 33 35 32 32 36 35 33 33 38 37 41 43 42 41 47 50 50 49 48 50 52 52
56 56 56 56 55 54 51 42 41 39 41 29 22 12 10 14 19 19 23 27 24 27 28 34 34 27 25 32 32 31 32 35 38 40 41 42 41 42 49 50 50 50 47 51 51
55 56 56 56 55 54 50 34 36 36 30 26 25 20 12 19 17 12 20 23 22 21 24 29 31 32 28 29 31 31 33 39 39 40 40 40 39 42 45 48 49 51 49 48 49
55 56 56 55 54 51 36 36 37 38 31 23 24 22 20 19 15 10 17 20 19 18 20 24 27 31 30 26 28 29 33 35 34 37 38 41 45 43 44 48 49 49 50 49 49
55 56 55 54 48 40 37 40 36 40 29 21 17 18 22 19 11 12 13 17 18 15 15 19 21 28 30 26 28 27 36 34 35 36 44 45 39 44 42 45 48 49 49 49 50
56 56 55 53 48 36 38 38 38 38 19 15 16 25 19 12 10 11 16 10 12 12 13 13 15 24 30 26 27 30 34 34 35 34 33 39 37 43 37 42 45 47 48 48 49
55 54 53 51 49 42 38 38 39 24 12 16 18 14 16 13 9 10 13 11 12 12 12 11 15 20 25 27 29 31 31 34 35 32 31 42 34 40 47 34 38 41 46 47 49
54 54 53 51 40 42 39 38 25 17 14 14 15 17 13 9 8 11 12 6 4 4 5 8 8 15 23 25 28 31 30 27 31 33 37 41 35 34 33 34 37 41 44 46 48
54 52 52 48 44 42 38 32 23 14 11 22 20 18 14 8 6 6 8 5 4 4 4 6 6 5 21 26 27 29 28 24 25 31 33 36 30 33 34 36 38 42 46 47 48
53 48 44 45 45 43 35 23 19 17 18 20 18 16 14 12 7 6 5 7 6 5 4 4 7 9 13 21 25 27 24 25 23 22 25 25 35 27 32 36 40 42 47 49 49
51 44 38 46 46 39 29 24 20 21 25 21 17 17 14 13 8 6 7 6 7 7 7 7 11 12 16 18 18 20 25 23 22 22 20 30 28 24 34 32 35 40 44 51 52
50 37 44 44 43 32 23 20 21 23 23 22 19 20 17 16 10 4 6 6 6 7 8 6 9 10 16 18 18 19 24 26 26 33 23 17 28 37 29 35 32 38 45 51 52
45 33 42 41 30 26 22 21 25 22 21 23 22 23 20 20 20 12 11 6 7 5 6 8 5 5 9 14 18 20 23 23 22 23 19 20 18 20 28 30 34 38 48 51 52
43 36 42 36 26 23 24 25 23 19 15 18 21 21 24 24 24 22 16 12 9 5 6 7 4 2 3 10 12 14 21 25 20 21 23 22 18 24 29 41 41 43 49 53 55
44 35 38 34 31 30 24 24 21 22 20 21 23 25 26 26 26 27 17 17 17 9 17 10 4 2 1 7 7 12 17 21 22 21 21 20 16 21 24 31 43 45 50 54 56
43 36 50 31 27 27 27 28 27 25 28 25 26 27 26 27 26 23 23 22 24 25 17 7 6 5 3 4 7 9 12 16 19 22 21 22 21 21 23 24 37 45 52 54 56
44 41 44 41 41 34 33 33 32 28 28 28 27 27 25 30 32 27 22 21 25 29 18 11 7 8 7 6 5 4 8 10 16 17 20 21 21 21 22 24 30 39 48 53 56
47 46 44 39 37 36 34 33 33 33 35 32 35 33 35 35 37 38 37 36 35 33 20 14 10 8 8 9 7 5 7 12 14 18 21 21 21 19 19 21 27 36 44 51 55

GFSSW_sfc_30mbdewp_285.txt.gz
Dewpoint
57 57 58 58 58 59 59 59 59 59 59 59 59 59 59 60 56 35 27 34 52 67 71 62 63 61 60 56 60 62 53 51 51 48 48 48 47 51 52 51 54 57 58 57 55
57 57 58 59 59 59 59 59 58 58 58 59 59 59 59 59 48 31 32 52 58 67 56 48 46 50 51 52 56 54 55 52 52 50 48 48 50 51 52 54 56 57 59 55 55
57 57 58 59 58 58 58 58 58 58 58 58 59 59 59 59 38 23 55 52 56 65 43 40 44 47 45 46 48 54 47 48 46 45 47 51 51 51 51 54 56 56 55 54 53
57 58 58 58 57 57 57 58 58 58 57 58 58 59 59 51 23 35 54 54 61 58 39 42 44 45 42 42 45 49 46 47 46 44 49 49 52 52 54 54 56 56 55 54 53
57 58 58 57 57 57 58 58 58 57 57 57 58 59 44 37 32 36 51 62 61 45 37 41 43 44 39 44 45 46 50 49 49 44 46 49 49 50 52 56 55 56 55 54 53
56 57 57 57 56 57 57 57 57 57 57 57 57 59 49 29 26 37 41 53 40 43 38 39 42 43 34 45 47 48 46 42 47 47 44 47 47 48 53 55 54 54 54 54 53
57 57 57 57 57 57 57 57 56 56 57 57 58 55 41 23 26 26 33 28 33 35 39 40 42 31 30 43 48 48 47 45 47 46 45 49 49 45 49 53 54 54 54 54 53
57 57 57 57 57 57 57 56 56 56 57 58 59 51 33 30 28 23 21 20 27 33 39 41 37 34 32 43 46 45 46 45 45 46 49 49 45 51 48 50 52 54 54 53 53
57 57 57 57 56 56 56 55 56 57 58 58 51 43 34 24 23 20 16 15 23 28 31 34 35 33 33 36 42 45 40 42 45 42 48 46 45 53 51 49 49 50 52 53 52
57 57 56 56 56 56 55 53 53 53 54 49 44 35 36 27 17 16 12 12 17 24 27 31 34 33 34 34 34 38 40 41 43 42 44 50 47 49 52 47 49 49 50 51 51
57 57 57 56 55 55 53 46 42 42 38 38 33 26 21 27 20 9 8 13 18 20 22 30 30 29 32 35 36 36 39 41 37 40 41 50 54 53 55 52 49 49 50 51 50
57 57 56 55 55 54 53 42 37 32 29 31 35 37 35 30 10 12 15 14 19 19 23 24 27 29 30 33 34 29 29 40 40 39 44 52 52 52 54 52 52 51 50 50 50
57 57 56 55 54 52 44 41 37 33 30 30 29 27 32 26 11 13 13 12 16 20 20 20 26 27 26 29 28 24 27 40 36 41 47 48 48 48 53 51 50 52 51 50 50
57 57 56 54 47 48 42 36 34 34 30 27 25 22 23 25 17 15 13 10 12 15 19 18 19 19 20 22 26 24 28 32 31 42 42 50 38 42 44 44 46 47 52 51 51
56 56 55 54 50 48 38 39 32 34 26 23 19 19 18 17 14 13 14 11 9 14 15 17 16 15 15 18 20 27 25 25 38 44 43 45 44 42 46 44 43 42 48 50 51
56 56 54 51 51 50 49 46 33 30 22 17 17 15 11 15 14 13 11 11 11 9 10 14 16 14 12 14 15 17 25 26 40 42 38 42 44 42 45 42 44 45 50 51 50
56 55 53 52 45 45 46 37 29 26 23 14 17 17 17 12 13 13 7 6 9 6 6 9 8 11 11 9 14 16 24 23 28 34 35 42 43 41 46 46 47 48 51 52 50
55 53 53 52 51 49 42 33 28 25 17 16 14 14 9 9 11 10 6 7 8 8 6 7 6 10 12 7 9 16 22 23 23 31 41 44 40 39 45 48 46 51 50 49 52
54 52 48 50 51 48 38 28 25 26 22 19 19 16 15 13 9 9 4 8 10 8 2 2 3 9 8 9 8 10 15 22 24 26 38 42 45 44 43 42 48 47 47 44 48
52 51 48 46 48 41 35 27 24 23 23 22 19 20 19 18 14 11 5 5 7 10 7 3 1 5 7 8 8 8 19 17 22 23 26 39 40 37 42 44 43 33 45 48 46
52 48 43 43 41 38 31 27 22 19 19 21 20 19 20 22 21 18 10 10 6 7 8 5 4 4 8 8 6 10 13 18 19 22 27 35 36 41 41 44 43 37 44 49 48
49 43 43 42 37 35 32 29 25 21 20 20 18 17 20 20 20 20 20 9 9 8 6 7 6 5 7 7 9 15 15 17 15 16 28 32 33 41 42 47 48 48 49 50 51
49 46 46 42 37 32 28 26 24 22 21 20 20 16 15 16 17 22 25 25 20 8 10 7 7 5 6 6 8 14 15 15 17 18 19 27 31 39 38 39 43 46 50 52 53
49 43 42 41 39 34 28 28 29 26 21 22 20 17 17 18 21 23 24 25 25 13 15 10 5 4 7 8 12 11 16 16 15 14 19 30 32 37 44 44 47 50 52 54 56
49 43 45 41 43 43 39 29 25 25 22 20 22 16 18 21 25 24 25 25 30 25 15 12 7 7 8 9 7 5 4 11 13 14 12 34 33 38 43 44 40 54 54 56 57
48 49 48 46 45 41 38 35 24 26 30 30 27 23 20 20 22 24 28 36 36 38 23 19 13 11 10 12 9 8 8 5 10 11 13 31 34 37 38 40 38 52 54 56 57
52 52 50 45 43 41 37 35 35 35 39 35 33 32 30 32 39 39 37 38 37 36 37 34 34 33 17 11 10 7 10 8 9 9 14 13 16 34 34 28 32 49 55 56 58

GFSSW_sfc_30mbdewp_291.txt.gz
Dewpoint
57 57 57 57 57 57 58 58 59 59 59 59 59 59 60 60 58 43 16 31 69 76 71 69 70 69 66 66 61 61 50 47 49 49 50 52 54 57 58 57 57 58 59 60 65
57 57 57 57 58 57 57 58 58 59 59 59 59 59 60 60 51 34 28 68 75 75 70 69 67 67 65 64 59 53 50 48 53 51 50 51 55 57 58 56 57 57 59 62 65
57 57 58 58 58 58 58 58 58 58 58 58 58 59 59 60 28 28 48 73 75 75 70 69 67 66 63 59 59 55 50 51 49 51 52 52 53 56 57 56 57 56 60 64 65
58 58 58 58 58 58 58 58 58 58 58 58 58 59 59 52 20 27 63 74 75 71 55 44 62 60 48 50 57 52 52 51 50 53 49 51 52 56 56 56 58 59 63 64 64
58 58 58 58 58 58 58 58 58 58 58 58 58 59 49 25 15 38 68 75 73 66 41 36 41 42 41 43 46 50 48 49 49 50 51 52 51 53 55 58 57 61 63 63 63
57 57 58 58 58 58 58 58 57 57 57 58 59 59 42 11 18 55 57 60 52 44 35 33 37 42 40 44 47 48 45 43 47 46 49 51 54 55 57 58 56 56 60 60 60
56 57 57 57 57 58 56 56 56 56 57 58 59 57 37 15 35 31 29 42 46 44 31 36 38 38 38 40 48 47 42 47 47 50 51 53 54 55 56 57 54 53 54 57 57
56 56 56 56 57 57 56 56 56 57 57 58 59 54 23 29 35 36 29 23 31 36 37 34 40 38 36 40 46 42 46 41 49 49 51 52 51 54 56 55 53 53 53 53 53
56 55 55 56 56 56 55 55 56 58 58 59 50 38 23 34 31 31 26 20 16 17 26 28 33 33 34 35 34 42 37 41 45 50 49 50 49 52 54 55 54 54 53 53 53
56 55 55 55 55 55 55 54 53 55 56 56 49 33 23 22 28 29 24 19 15 13 18 23 28 26 29 30 29 31 37 41 42 49 49 47 47 50 53 54 54 54 54 54 54
56 55 55 55 55 54 52 41 38 33 39 34 31 26 29 30 34 25 23 13 10 15 16 22 20 21 22 29 31 32 36 40 47 51 41 47 45 48 51 56 54 54 54 54 54
56 55 55 55 54 54 50 39 40 41 36 36 34 34 33 34 31 30 12 8 8 9 19 18 18 20 25 27 28 31 42 48 50 51 47 45 48 48 51 53 55 54 54 54 54
56 55 55 54 53 50 48 42 44 44 32 31 32 32 32 34 29 28 22 9 13 13 16 17 20 21 20 20 21 25 37 47 46 50 50 50 45 47 52 53 54 55 54 53 53
56 55 55 53 44 50 41 44 47 44 27 23 28 29 30 31 26 31 18 12 12 11 15 17 19 19 19 17 19 16 28 42 47 47 37 50 36 42 46 48 51 52 53 54 53
56 55 54 53 49 42 41 47 47 34 8 28 24 27 27 19 17 16 14 12 9 12 15 16 17 16 14 13 18 16 38 46 47 44 42 43 41 38 48 44 46 50 52 53 55
56 55 54 51 50 47 49 49 35 25 5 23 19 22 23 21 20 17 15 13 12 9 11 12 15 13 10 11 13 41 41 40 43 40 34 41 38 33 43 44 45 48 50 51 55
55 54 52 52 36 49 49 36 26 21 23 20 19 20 17 17 17 18 16 12 12 8 7 7 7 9 10 7 10 31 31 21 25 27 27 44 38 34 41 45 45 47 50 53 55
54 53 52 52 52 51 39 30 21 24 28 22 19 19 15 15 14 14 13 12 10 8 7 6 4 7 8 8 7 10 16 12 15 19 26 44 33 33 44 45 47 50 49 54 55
53 51 51 51 52 49 32 21 18 26 23 19 19 20 18 19 20 15 12 11 10 9 6 6 5 7 9 7 6 6 8 17 28 41 34 38 41 42 43 46 45 49 50 53 54
51 50 49 51 52 39 29 19 25 28 23 23 18 20 18 18 20 18 14 11 11 8 8 7 4 6 5 7 7 6 13 14 22 24 26 34 39 35 36 38 45 46 47 45 48
51 44 46 51 43 36 22 26 30 30 28 24 20 22 20 17 18 17 16 18 10 7 9 7 6 6 6 5 4 6 8 16 18 22 19 23 28 39 37 38 39 40 43 43 42
48 35 46 46 37 37 34 33 32 31 33 29 26 24 18 16 15 14 17 21 29 18 12 8 6 5 7 6 9 8 6 10 7 9 29 29 26 38 41 42 43 42 43 45 48
47 47 49 43 36 36 37 36 36 36 30 28 25 25 21 16 15 19 22 26 33 36 15 7 6 4 3 5 7 9 13 16 18 19 26 25 26 39 42 40 43 43 46 46 47
48 44 47 45 42 41 42 40 39 39 36 34 29 27 19 17 19 19 23 30 36 38 30 11 6 4 3 3 9 6 7 12 15 10 15 22 22 36 40 39 40 42 44 47 48
49 47 49 44 44 45 43 42 40 40 37 38 31 37 25 15 16 21 31 36 37 37 37 25 8 6 7 9 11 11 26 13 9 9 9 11 25 32 39 39 39 40 44 46 49
49 49 49 48 47 45 44 42 41 43 41 38 38 38 23 29 30 32 35 35 34 34 35 33 29 22 19 26 22 38 42 38 38 46 26 31 27 46 45 43 41 41 46 49 50
51 51 50 47 46 44 44 44 43 44 43 41 40 37 36 36 38 36 38 37 36 33 34 34 31 29 23 27 23 17 42 43 46 47 48 38 41 48 45 43 41 39 42 49 53